Location: Chantarel
(45.1638°N, 1.7873°E)
Time: 16:48:26
(UTC+00:00)

Cosmos 2084 Rocket - Pass Details

Date: 03 March 2021
Orbit: 528 x 652 km, 62.8° (Epoch: 11 April)

Event Time Altitude Azimuth Distance (km) Brightness Sun altitude
Rises 18:23:24 0° 323° (NW) 2,800 7.5 -7.9°
Reaches altitude 10° 18:25:39 10° 328° (NNW) 1,919 6.5 -8.3°
Maximum altitude 18:29:56 57° 48° (NE) 713 3.6 -9.1°
Drops below altitude 10° 18:34:21 10° 127° (SE) 1,984 5.7 -9.8°
Enters shadow 18:35:02 - 129° (SE) 2,249 6.0 -10.0°
